contact:dominique.lefevre@mio.osupytheas.fr, maurice.libes@osupytheas.fr, didier.mallarino@osupytheas.fr
Project:EMSO http://www.emso-fr.org/EMSO-France
Depth: 2436.0 m
Title:EMSO Ligure Ouest : Data MII capteur CSTAR
DateTime,Latitude,Longitude,Instrument_Serial,Reference_Counts,Signal_Counts,Corrected_Signal_raw_counts,Calculated_Beam_c_inverse_meters,Internal_thermistor_counts
DateTime,Latitude,Longitude,Instrument_Serial,Reference_Counts,Signal_Counts,Corrected_Signal_raw_counts,Calculated_Beam_c_inverse_meters,Internal_thermistor_counts
2023-02-17T00:02:11,42.805,6.029,CST-1368DR,4381,4901,11887,01.091,551
2023-02-17T00:05:12,42.805,6.029,CST-1368DR,4381,4894,11868,01.098,551
2023-02-17T00:08:14,42.805,6.029,CST-1368DR,4381,4892,11863,01.099,551
2023-02-17T00:11:16,42.805,6.029,CST-1368DR,4381,4891,11862,01.100,551
2023-02-17T00:14:17,42.805,6.029,CST-1368DR,4381,4892,11864,01.099,551
2023-02-17T00:17:19,42.805,6.029,CST-1368DR,4381,4890,11860,01.100,551
2023-02-17T00:20:20,42.805,6.029,CST-1368DR,4381,4889,11856,01.102,551
2023-02-17T00:23:22,42.805,6.029,CST-1368DR,4381,4892,11863,01.099,551
2023-02-17T00:26:24,42.805,6.029,CST-1368DR,4381,4891,11861,01.100,551
2023-02-17T00:29:25,42.805,6.029,CST-1368DR,4381,4891,11861,01.100,551
2023-02-17T00:32:27,42.805,6.029,CST-1368DR,4381,4890,11858,01.101,551
2023-02-17T00:35:28,42.805,6.029,CST-1368DR,4381,4888,11853,01.103,551
2023-02-17T00:38:30,42.805,6.029,CST-1368DR,4381,4889,11856,01.102,551
2023-02-17T00:41:31,42.805,6.029,CST-1368DR,4381,4892,11863,01.099,551
2023-02-17T00:44:33,42.805,6.029,CST-1368DR,4381,4889,11858,01.101,551
2023-02-17T00:47:35,42.805,6.029,CST-1368DR,4381,4889,11856,01.102,551
2023-02-17T00:50:36,42.805,6.029,CST-1368DR,4381,4890,11858,01.101,551
2023-02-17T00:53:38,42.805,6.029,CST-1368DR,4381,4889,11858,01.101,551
2023-02-17T00:56:39,42.805,6.029,CST-1368DR,4381,4891,11862,01.100,551
2023-02-17T00:59:41,42.805,6.029,CST-1368DR,4381,4890,11860,01.100,551
2023-02-17T01:02:42,42.805,6.029,CST-1368DR,4381,4888,11855,01.102,551
2023-02-17T01:05:44,42.805,6.029,CST-1368DR,4381,4891,11861,01.100,551
2023-02-17T01:08:46,42.805,6.029,CST-1368DR,4381,4892,11864,01.099,551
2023-02-17T01:11:47,42.805,6.029,CST-1368DR,4381,4888,11855,01.102,551
2023-02-17T01:14:49,42.805,6.029,CST-1368DR,4381,4888,11855,01.102,551
2023-02-17T01:17:50,42.805,6.029,CST-1368DR,4381,4887,11852,01.103,551
2023-02-17T01:20:52,42.805,6.029,CST-1368DR,4381,4889,11856,01.102,551
2023-02-17T01:23:54,42.805,6.029,CST-1368DR,4381,4890,11858,01.101,551
2023-02-17T01:26:55,42.805,6.029,CST-1368DR,4381,4889,11857,01.102,551
2023-02-17T01:29:57,42.805,6.029,CST-1368DR,4381,4888,11855,01.102,551
2023-02-17T01:32:58,42.805,6.029,CST-1368DR,4381,4891,11862,01.100,551
2023-02-17T01:36:00,42.805,6.029,CST-1368DR,4381,4888,11854,01.103,551
2023-02-17T01:39:01,42.805,6.029,CST-1368DR,4381,4888,11855,01.102,551
2023-02-17T01:42:03,42.805,6.029,CST-1368DR,4381,4889,11856,01.102,551
2023-02-17T01:45:05,42.805,6.029,CST-1368DR,4381,4890,11859,01.101,551
2023-02-17T01:48:06,42.805,6.029,CST-1368DR,4381,4888,11855,01.102,551
2023-02-17T01:51:08,42.805,6.029,CST-1368DR,4381,4888,11854,01.103,551
2023-02-17T01:54:09,42.805,6.029,CST-1368DR,4381,4889,11856,01.102,551
2023-02-17T01:57:11,42.805,6.029,CST-1368DR,4381,4890,11858,01.101,551
2023-02-17T02:00:12,42.805,6.029,CST-1368DR,4381,4888,11853,01.103,551
2023-02-17T02:03:14,42.805,6.029,CST-1368DR,4381,4888,11855,01.102,551
2023-02-17T02:06:16,42.805,6.029,CST-1368DR,4381,4887,11852,01.103,551
2023-02-17T02:09:17,42.805,6.029,CST-1368DR,4381,4888,11854,01.103,551
2023-02-17T02:12:19,42.805,6.029,CST-1368DR,4381,4887,11853,01.103,551
2023-02-17T02:15:20,42.805,6.029,CST-1368DR,4381,4891,11861,01.100,551
2023-02-17T02:18:22,42.805,6.029,CST-1368DR,4381,4887,11852,01.103,551
2023-02-17T02:21:23,42.805,6.029,CST-1368DR,4381,4889,11856,01.102,551
2023-02-17T02:24:25,42.805,6.029,CST-1368DR,4381,4888,11855,01.102,551
2023-02-17T02:27:27,42.805,6.029,CST-1368DR,4381,4889,11856,01.102,551
2023-02-17T02:30:28,42.805,6.029,CST-1368DR,4381,4888,11855,01.102,551
2023-02-17T02:33:30,42.805,6.029,CST-1368DR,4381,4890,11859,01.101,551
2023-02-17T02:36:31,42.805,6.029,CST-1368DR,4381,4889,11856,01.102,551
2023-02-17T02:39:33,42.805,6.029,CST-1368DR,4381,4889,11856,01.102,551
2023-02-17T02:42:35,42.805,6.029,CST-1368DR,4381,4889,11858,01.101,551
2023-02-17T02:45:36,42.805,6.029,CST-1368DR,4381,4890,11859,01.101,551
2023-02-17T02:48:38,42.805,6.029,CST-1368DR,4381,4890,11858,01.101,551
2023-02-17T02:51:39,42.805,6.029,CST-1368DR,4381,4888,11855,01.102,551
2023-02-17T02:54:41,42.805,6.029,CST-1368DR,4381,4890,11859,01.101,551
2023-02-17T02:57:42,42.805,6.029,CST-1368DR,4381,4889,11856,01.102,551
2023-02-17T03:00:44,42.805,6.029,CST-1368DR,4381,4886,11849,01.104,551
2023-02-17T03:03:46,42.805,6.029,CST-1368DR,4381,4889,11857,01.102,551
2023-02-17T03:06:47,42.805,6.029,CST-1368DR,4381,4888,11855,01.102,551
2023-02-17T03:09:49,42.805,6.029,CST-1368DR,4381,4889,11856,01.102,551
2023-02-17T03:12:50,42.805,6.029,CST-1368DR,4381,4888,11855,01.102,551
2023-02-17T03:15:52,42.805,6.029,CST-1368DR,4381,4889,11856,01.102,551
2023-02-17T03:18:53,42.805,6.029,CST-1368DR,4381,4889,11857,01.102,551
2023-02-17T03:21:55,42.805,6.029,CST-1368DR,4381,4888,11853,01.103,551
2023-02-17T03:24:57,42.805,6.029,CST-1368DR,4381,4889,11856,01.102,551
2023-02-17T03:27:58,42.805,6.029,CST-1368DR,4381,4889,11856,01.102,551
2023-02-17T03:31:00,42.805,6.029,CST-1368DR,4381,4887,11852,01.103,551
2023-02-17T03:34:01,42.805,6.029,CST-1368DR,4381,4888,11853,01.103,551
2023-02-17T03:37:03,42.805,6.029,CST-1368DR,4381,4888,11853,01.103,551
2023-02-17T03:40:05,42.805,6.029,CST-1368DR,4381,4888,11854,01.103,551
2023-02-17T03:43:06,42.805,6.029,CST-1368DR,4381,4889,11856,01.102,551
2023-02-17T03:46:08,42.805,6.029,CST-1368DR,4381,4889,11858,01.101,551
2023-02-17T03:49:09,42.805,6.029,CST-1368DR,4381,4888,11855,01.102,551
2023-02-17T03:52:11,42.805,6.029,CST-1368DR,4381,4888,11855,01.102,551
2023-02-17T03:55:12,42.805,6.029,CST-1368DR,4381,4889,11856,01.102,551
2023-02-17T03:58:14,42.805,6.029,CST-1368DR,4381,4889,11856,01.102,551
2023-02-17T04:01:16,42.805,6.029,CST-1368DR,4381,4891,11861,01.100,551
2023-02-17T04:04:17,42.805,6.029,CST-1368DR,4381,4889,11856,01.102,551
2023-02-17T04:07:19,42.805,6.029,CST-1368DR,4381,4888,11855,01.102,551
2023-02-17T04:10:20,42.805,6.029,CST-1368DR,4381,4889,11857,01.102,551
2023-02-17T04:13:22,42.805,6.029,CST-1368DR,4381,4888,11853,01.103,551
2023-02-17T04:16:23,42.805,6.029,CST-1368DR,4381,4891,11861,01.100,551
2023-02-17T04:19:25,42.805,6.029,CST-1368DR,4381,4891,11861,01.100,551
2023-02-17T04:22:27,42.805,6.029,CST-1368DR,4381,4891,11862,01.100,551
2023-02-17T04:25:28,42.805,6.029,CST-1368DR,4381,4893,11866,01.098,551
2023-02-17T04:28:30,42.805,6.029,CST-1368DR,4381,4888,11855,01.102,551
2023-02-17T04:31:31,42.805,6.029,CST-1368DR,4381,4891,11861,01.100,551
2023-02-17T04:34:33,42.805,6.029,CST-1368DR,4381,4891,11862,01.100,551
2023-02-17T04:37:35,42.805,6.029,CST-1368DR,4381,4891,11862,01.100,551
2023-02-17T04:40:36,42.805,6.029,CST-1368DR,4381,4890,11860,01.100,551
2023-02-17T04:43:38,42.805,6.029,CST-1368DR,4381,4891,11862,01.100,551
2023-02-17T04:46:39,42.805,6.029,CST-1368DR,4381,4891,11862,01.100,551
2023-02-17T04:49:41,42.805,6.029,CST-1368DR,4381,4892,11864,01.099,551
2023-02-17T04:52:42,42.805,6.029,CST-1368DR,4381,4891,11861,01.100,551
2023-02-17T04:55:44,42.805,6.029,CST-1368DR,4381,4895,11871,01.097,551
2023-02-17T04:58:46,42.805,6.029,CST-1368DR,4381,4894,11869,01.097,551
2023-02-17T05:01:47,42.805,6.029,CST-1368DR,4381,4893,11866,01.098,551
2023-02-17T05:04:49,42.805,6.029,CST-1368DR,4381,4894,11869,01.097,551
2023-02-17T05:07:50,42.805,6.029,CST-1368DR,4381,4894,11869,01.097,551
2023-02-17T05:10:52,42.805,6.029,CST-1368DR,4381,4894,11869,01.097,551
2023-02-17T05:13:53,42.805,6.029,CST-1368DR,4381,4894,11868,01.098,551
2023-02-17T05:16:55,42.805,6.029,CST-1368DR,4381,4894,11869,01.097,551
2023-02-17T05:19:57,42.805,6.029,CST-1368DR,4381,4894,11870,01.097,551
2023-02-17T05:22:58,42.805,6.029,CST-1368DR,4381,4895,11872,01.096,551
2023-02-17T05:26:00,42.805,6.029,CST-1368DR,4381,4895,11872,01.096,551
2023-02-17T05:29:01,42.805,6.029,CST-1368DR,4381,4894,11868,01.098,551
2023-02-17T05:32:03,42.805,6.029,CST-1368DR,4381,4892,11865,01.099,551
2023-02-17T05:35:05,42.805,6.029,CST-1368DR,4381,4895,11871,01.097,551
2023-02-17T05:38:06,42.805,6.029,CST-1368DR,4381,4893,11867,01.098,551
2023-02-17T05:41:08,42.805,6.029,CST-1368DR,4381,4894,11870,01.097,551
2023-02-17T05:44:09,42.805,6.029,CST-1368DR,4381,4893,11867,01.098,551
2023-02-17T05:47:11,42.805,6.029,CST-1368DR,4381,4894,11870,01.097,551
2023-02-17T05:50:12,42.805,6.029,CST-1368DR,4381,4894,11869,01.097,551
2023-02-17T05:53:14,42.805,6.029,CST-1368DR,4381,4894,11870,01.097,551
2023-02-17T05:56:16,42.805,6.029,CST-1368DR,4381,4900,11884,01.092,551
2023-02-17T05:59:17,42.805,6.029,CST-1368DR,4381,4895,11870,01.097,551
2023-02-17T06:02:19,42.805,6.029,CST-1368DR,4381,4895,11870,01.097,551
2023-02-17T06:05:20,42.805,6.029,CST-1368DR,4381,4894,11869,01.097,551
2023-02-17T06:08:22,42.805,6.029,CST-1368DR,4381,4891,11862,01.100,551
2023-02-17T06:11:23,42.805,6.029,CST-1368DR,4381,4894,11869,01.097,551
2023-02-17T06:14:25,42.805,6.029,CST-1368DR,4381,4892,11865,01.099,551
2023-02-17T06:17:27,42.805,6.029,CST-1368DR,4381,4897,11876,01.095,551
2023-02-17T06:20:28,42.805,6.029,CST-1368DR,4381,4888,11855,01.102,551
2023-02-17T06:23:30,42.805,6.029,CST-1368DR,4381,4895,11871,01.097,551
2023-02-17T06:26:31,42.805,6.029,CST-1368DR,4381,4894,11869,01.097,551
2023-02-17T06:29:33,42.805,6.029,CST-1368DR,4381,4894,11869,01.097,551
2023-02-17T06:32:34,42.805,6.029,CST-1368DR,4381,4895,11872,01.096,551
2023-02-17T06:35:36,42.805,6.029,CST-1368DR,4381,4893,11866,01.098,551
2023-02-17T06:38:38,42.805,6.029,CST-1368DR,4381,4896,11875,01.095,551
2023-02-17T06:41:39,42.805,6.029,CST-1368DR,4381,4896,11873,01.096,551
2023-02-17T06:44:41,42.805,6.029,CST-1368DR,4381,4895,11871,01.097,551
2023-02-17T06:47:42,42.805,6.029,CST-1368DR,4381,4892,11864,01.099,551
2023-02-17T06:50:44,42.805,6.029,CST-1368DR,4381,4896,11874,01.096,551
2023-02-17T06:53:45,42.805,6.029,CST-1368DR,4381,4899,11882,01.093,551
2023-02-17T06:56:47,42.805,6.029,CST-1368DR,4381,4895,11872,01.096,551
2023-02-17T06:59:49,42.805,6.029,CST-1368DR,4381,4894,11869,01.097,551
2023-02-17T07:02:50,42.805,6.029,CST-1368DR,4381,4896,11873,01.096,551
2023-02-17T07:05:52,42.805,6.029,CST-1368DR,4381,4897,11877,01.095,551
2023-02-17T07:08:53,42.805,6.029,CST-1368DR,4381,4894,11869,01.097,551
2023-02-17T07:11:55,42.805,6.029,CST-1368DR,4381,4896,11874,01.096,551
2023-02-17T07:14:57,42.805,6.029,CST-1368DR,4381,4896,11873,01.096,551
2023-02-17T07:17:58,42.805,6.029,CST-1368DR,4381,4892,11865,01.099,551
2023-02-17T07:21:00,42.805,6.029,CST-1368DR,4381,4895,11871,01.097,551
2023-02-17T07:24:01,42.805,6.029,CST-1368DR,4381,4890,11860,01.100,551
2023-02-17T07:27:03,42.805,6.029,CST-1368DR,4381,4895,11870,01.097,551
2023-02-17T07:30:04,42.805,6.029,CST-1368DR,4381,4894,11869,01.097,551
2023-02-17T07:33:06,42.805,6.029,CST-1368DR,4381,4895,11871,01.097,551
2023-02-17T07:36:08,42.805,6.029,CST-1368DR,4381,4894,11870,01.097,551
2023-02-17T07:39:09,42.805,6.029,CST-1368DR,4381,4893,11866,01.098,551
2023-02-17T07:42:11,42.805,6.029,CST-1368DR,4381,4894,11869,01.097,551
2023-02-17T07:45:12,42.805,6.029,CST-1368DR,4381,4894,11869,01.097,551
2023-02-17T07:48:14,42.805,6.029,CST-1368DR,4381,4894,11869,01.097,551
2023-02-17T07:51:15,42.805,6.029,CST-1368DR,4381,4894,11868,01.098,551
2023-02-17T07:54:17,42.805,6.029,CST-1368DR,4381,4894,11869,01.097,551
2023-02-17T07:57:19,42.805,6.029,CST-1368DR,4381,4894,11869,01.097,551
2023-02-17T08:00:20,42.805,6.029,CST-1368DR,4381,4886,11849,01.104,551
2023-02-17T08:03:22,42.805,6.029,CST-1368DR,4381,4889,11858,01.101,551
2023-02-17T08:06:23,42.805,6.029,CST-1368DR,4381,4895,11872,01.096,551
2023-02-17T08:09:25,42.805,6.029,CST-1368DR,4381,4894,11868,01.098,551
2023-02-17T08:12:27,42.805,6.029,CST-1368DR,4381,4895,11871,01.097,551
2023-02-17T08:15:28,42.805,6.029,CST-1368DR,4381,4896,11874,01.096,551
2023-02-17T08:18:30,42.805,6.029,CST-1368DR,4381,4895,11871,01.097,551
2023-02-17T08:21:31,42.805,6.029,CST-1368DR,4381,4893,11865,01.099,551
2023-02-17T08:24:33,42.805,6.029,CST-1368DR,4381,4893,11867,01.098,551
2023-02-17T08:27:34,42.805,6.029,CST-1368DR,4381,4895,11872,01.096,551
2023-02-17T08:30:36,42.805,6.029,CST-1368DR,4381,4894,11869,01.097,551
2023-02-17T08:33:38,42.805,6.029,CST-1368DR,4381,4895,11871,01.097,551
2023-02-17T08:36:39,42.805,6.029,CST-1368DR,4381,4896,11874,01.096,551
2023-02-17T08:39:41,42.805,6.029,CST-1368DR,4381,4896,11874,01.096,551
2023-02-17T08:42:42,42.805,6.029,CST-1368DR,4381,4895,11872,01.096,551
2023-02-17T08:45:44,42.805,6.029,CST-1368DR,4381,4892,11863,01.099,551
2023-02-17T08:48:45,42.805,6.029,CST-1368DR,4381,4896,11875,01.095,551
2023-02-17T08:51:47,42.805,6.029,CST-1368DR,4381,4896,11873,01.096,551
2023-02-17T08:54:49,42.805,6.029,CST-1368DR,4381,4896,11873,01.096,551
2023-02-17T08:57:50,42.805,6.029,CST-1368DR,4381,4897,11876,01.095,551
2023-02-17T09:00:52,42.805,6.029,CST-1368DR,4381,4895,11872,01.096,551
2023-02-17T09:03:53,42.805,6.029,CST-1368DR,4381,4895,11872,01.096,551
2023-02-17T09:06:55,42.805,6.029,CST-1368DR,4381,4898,11878,01.094,551
2023-02-17T09:09:57,42.805,6.029,CST-1368DR,4381,4897,11876,01.095,551
2023-02-17T09:12:58,42.805,6.029,CST-1368DR,4381,4895,11872,01.096,551
2023-02-17T09:16:00,42.805,6.029,CST-1368DR,4381,4893,11867,01.098,551
2023-02-17T09:19:01,42.805,6.029,CST-1368DR,4381,4896,11875,01.095,551
2023-02-17T09:22:03,42.805,6.029,CST-1368DR,4381,4896,11874,01.096,551
2023-02-17T09:25:04,42.805,6.029,CST-1368DR,4381,4898,11878,01.094,551
2023-02-17T09:28:06,42.805,6.029,CST-1368DR,4381,4897,11876,01.095,551
2023-02-17T09:31:08,42.805,6.029,CST-1368DR,4381,4897,11876,01.095,551
2023-02-17T09:34:09,42.805,6.029,CST-1368DR,4381,4896,11874,01.096,551
2023-02-17T09:37:11,42.805,6.029,CST-1368DR,4381,4897,11876,01.095,551
2023-02-17T09:40:12,42.805,6.029,CST-1368DR,4381,4896,11873,01.096,551
2023-02-17T09:43:14,42.805,6.029,CST-1368DR,4381,4895,11872,01.096,551
2023-02-17T09:46:15,42.805,6.029,CST-1368DR,4381,4895,11871,01.097,551
2023-02-17T09:49:17,42.805,6.029,CST-1368DR,4381,4895,11871,01.097,551
2023-02-17T09:52:19,42.805,6.029,CST-1368DR,4381,4892,11864,01.099,551
2023-02-17T09:55:20,42.805,6.029,CST-1368DR,4381,4897,11876,01.095,551
2023-02-17T09:58:22,42.805,6.029,CST-1368DR,4381,4896,11874,01.096,551
2023-02-17T10:01:23,42.805,6.029,CST-1368DR,4381,4895,11872,01.096,551
2023-02-17T10:04:25,42.805,6.029,CST-1368DR,4381,4896,11875,01.095,551
2023-02-17T10:07:26,42.805,6.029,CST-1368DR,4381,4896,11875,01.095,551
2023-02-17T10:10:28,42.805,6.029,CST-1368DR,4381,4897,11876,01.095,551
2023-02-17T10:13:30,42.805,6.029,CST-1368DR,4381,4897,11876,01.095,551
2023-02-17T10:16:31,42.805,6.029,CST-1368DR,4381,4896,11873,01.096,551
2023-02-17T10:19:33,42.805,6.029,CST-1368DR,4381,4894,11868,01.098,551
2023-02-17T10:22:34,42.805,6.029,CST-1368DR,4381,4896,11874,01.096,551
2023-02-17T10:25:36,42.805,6.029,CST-1368DR,4381,4895,11872,01.096,551
2023-02-17T10:28:38,42.805,6.029,CST-1368DR,4381,4895,11872,01.096,551
2023-02-17T10:31:39,42.805,6.029,CST-1368DR,4381,4896,11875,01.095,551
2023-02-17T10:34:41,42.805,6.029,CST-1368DR,4381,4894,11869,01.097,551
2023-02-17T10:37:42,42.805,6.029,CST-1368DR,4381,4896,11875,01.095,551
2023-02-17T10:40:44,42.805,6.029,CST-1368DR,4381,4894,11869,01.097,551
2023-02-17T10:43:45,42.805,6.029,CST-1368DR,4380,4893,11869,01.097,551
2023-02-17T10:46:47,42.805,6.029,CST-1368DR,4380,4901,11888,01.091,551
2023-02-17T10:49:49,42.805,6.029,CST-1368DR,4380,4896,11877,01.095,551
2023-02-17T10:52:50,42.805,6.029,CST-1368DR,4380,4895,11875,01.095,551
2023-02-17T10:55:52,42.805,6.029,CST-1368DR,4380,4897,11880,01.094,551
2023-02-17T10:58:53,42.805,6.029,CST-1368DR,4380,4895,11875,01.095,551
2023-02-17T11:01:55,42.805,6.029,CST-1368DR,4380,4896,11877,01.095,551
2023-02-17T11:04:56,42.805,6.029,CST-1368DR,4380,4895,11875,01.095,551
2023-02-17T11:07:58,42.805,6.029,CST-1368DR,4380,4895,11874,01.096,551
2023-02-17T11:11:00,42.805,6.029,CST-1368DR,4380,4895,11874,01.096,551
2023-02-17T11:14:01,42.805,6.029,CST-1368DR,4380,4896,11877,01.095,551
2023-02-17T11:17:03,42.805,6.029,CST-1368DR,4380,4897,11880,01.094,551
2023-02-17T11:20:04,42.805,6.029,CST-1368DR,4380,4896,11877,01.095,551
2023-02-17T11:23:06,42.805,6.029,CST-1368DR,4380,4895,11874,01.096,551
2023-02-17T11:26:08,42.805,6.029,CST-1368DR,4380,4895,11874,01.096,551
2023-02-17T11:29:09,42.805,6.029,CST-1368DR,4380,4898,11881,01.093,551
2023-02-17T11:32:11,42.805,6.029,CST-1368DR,4380,4896,11877,01.095,551
2023-02-17T11:35:12,42.805,6.029,CST-1368DR,4380,4900,11886,01.092,551
2023-02-17T11:38:14,42.805,6.029,CST-1368DR,4380,4898,11882,01.093,551
2023-02-17T11:41:15,42.805,6.029,CST-1368DR,4380,4895,11875,01.095,551
2023-02-17T11:44:17,42.805,6.029,CST-1368DR,4380,4895,11875,01.095,551
2023-02-17T11:47:19,42.805,6.029,CST-1368DR,4380,4896,11876,01.095,551
2023-02-17T11:50:20,42.805,6.029,CST-1368DR,4380,4898,11880,01.094,551
2023-02-17T11:53:22,42.805,6.029,CST-1368DR,4380,4896,11877,01.095,551
2023-02-17T11:56:23,42.805,6.029,CST-1368DR,4380,4896,11875,01.095,551
2023-02-17T11:59:25,42.805,6.029,CST-1368DR,4380,4896,11877,01.095,551
2023-02-17T12:02:27,42.805,6.029,CST-1368DR,4380,4897,11880,01.094,551
2023-02-17T12:05:28,42.805,6.029,CST-1368DR,4380,4898,11880,01.094,551
2023-02-17T12:08:30,42.805,6.029,CST-1368DR,4380,4897,11879,01.094,551
2023-02-17T12:11:31,42.805,6.029,CST-1368DR,4380,4899,11883,01.093,551
2023-02-17T12:14:33,42.805,6.029,CST-1368DR,4380,4896,11877,01.095,551
2023-02-17T12:17:34,42.805,6.029,CST-1368DR,4380,4895,11873,01.096,551
2023-02-17T12:20:36,42.805,6.029,CST-1368DR,4380,4896,11876,01.095,551
2023-02-17T12:23:38,42.805,6.029,CST-1368DR,4380,4895,11875,01.095,551
2023-02-17T12:26:39,42.805,6.029,CST-1368DR,4380,4895,11874,01.096,551
2023-02-17T12:29:41,42.805,6.029,CST-1368DR,4380,4896,11875,01.095,551
2023-02-17T12:32:42,42.805,6.029,CST-1368DR,4380,4894,11872,01.096,551
2023-02-17T12:35:44,42.805,6.029,CST-1368DR,4380,4895,11874,01.096,551
2023-02-17T12:38:45,42.805,6.029,CST-1368DR,4380,4894,11872,01.096,551
2023-02-17T12:41:47,42.805,6.029,CST-1368DR,4380,4892,11867,01.098,551
2023-02-17T12:44:49,42.805,6.029,CST-1368DR,4380,4893,11869,01.097,551
2023-02-17T12:47:50,42.805,6.029,CST-1368DR,4381,4895,11872,01.096,551
2023-02-17T12:50:52,42.805,6.029,CST-1368DR,4381,4895,11871,01.097,551
2023-02-17T12:53:53,42.805,6.029,CST-1368DR,4381,4895,11870,01.097,551
2023-02-17T12:56:55,42.805,6.029,CST-1368DR,4381,4899,11880,01.094,551
2023-02-17T12:59:56,42.805,6.029,CST-1368DR,4381,4895,11871,01.097,551
2023-02-17T13:02:58,42.805,6.029,CST-1368DR,4381,4896,11874,01.096,551
2023-02-17T13:06:00,42.805,6.029,CST-1368DR,4381,4895,11870,01.097,551
2023-02-17T13:09:01,42.805,6.029,CST-1368DR,4381,4895,11872,01.096,551
2023-02-17T13:12:03,42.805,6.029,CST-1368DR,4381,4893,11865,01.099,551
2023-02-17T13:15:04,42.805,6.029,CST-1368DR,4381,4894,11869,01.097,551
2023-02-17T13:18:06,42.805,6.029,CST-1368DR,4381,4894,11868,01.098,551
2023-02-17T13:21:08,42.805,6.029,CST-1368DR,4381,4893,11867,01.098,551
2023-02-17T13:24:09,42.805,6.029,CST-1368DR,4381,4894,11868,01.098,551
2023-02-17T13:27:11,42.805,6.029,CST-1368DR,4381,4894,11868,01.098,551
2023-02-17T13:30:12,42.805,6.029,CST-1368DR,4381,4892,11865,01.099,551
2023-02-17T13:33:14,42.805,6.029,CST-1368DR,4381,4894,11868,01.098,551
2023-02-17T13:36:15,42.805,6.029,CST-1368DR,4381,4893,11867,01.098,551
2023-02-17T13:39:17,42.805,6.029,CST-1368DR,4381,4892,11865,01.099,551
2023-02-17T13:42:19,42.805,6.029,CST-1368DR,4381,4893,11865,01.099,551
2023-02-17T13:45:20,42.805,6.029,CST-1368DR,4381,4893,11867,01.098,551
2023-02-17T13:48:22,42.805,6.029,CST-1368DR,4381,4891,11862,01.100,551
2023-02-17T13:51:23,42.805,6.029,CST-1368DR,4381,4892,11863,01.099,551
2023-02-17T13:54:25,42.805,6.029,CST-1368DR,4381,4893,11865,01.099,551
2023-02-17T13:57:26,42.805,6.029,CST-1368DR,4381,4892,11863,01.099,551
2023-02-17T14:00:28,42.805,6.029,CST-1368DR,4381,4891,11862,01.100,551
2023-02-17T14:03:30,42.805,6.029,CST-1368DR,4381,4892,11864,01.099,551
2023-02-17T14:06:31,42.805,6.029,CST-1368DR,4381,4892,11865,01.099,551
2023-02-17T14:09:33,42.805,6.029,CST-1368DR,4381,4892,11864,01.099,551
2023-02-17T14:12:34,42.805,6.029,CST-1368DR,4381,4891,11862,01.100,551
2023-02-17T14:15:36,42.805,6.029,CST-1368DR,4381,4892,11864,01.099,551
2023-02-17T14:18:37,42.805,6.029,CST-1368DR,4381,4892,11865,01.099,551
2023-02-17T14:21:39,42.805,6.029,CST-1368DR,4381,4893,11867,01.098,551
2023-02-17T14:24:41,42.805,6.029,CST-1368DR,4381,4893,11865,01.099,551
2023-02-17T14:27:42,42.805,6.029,CST-1368DR,4381,4894,11868,01.098,551
2023-02-17T14:30:44,42.805,6.029,CST-1368DR,4381,4893,11867,01.098,551
2023-02-17T14:33:45,42.805,6.029,CST-1368DR,4381,4893,11865,01.099,551
2023-02-17T14:36:47,42.805,6.029,CST-1368DR,4381,4893,11865,01.099,551
2023-02-17T14:39:49,42.805,6.029,CST-1368DR,4381,4891,11862,01.100,551
2023-02-17T14:42:50,42.805,6.029,CST-1368DR,4381,4893,11867,01.098,551
2023-02-17T14:45:52,42.805,6.029,CST-1368DR,4380,4893,11869,01.097,551
2023-02-17T14:48:53,42.805,6.029,CST-1368DR,4381,4893,11866,01.098,551
2023-02-17T14:51:55,42.805,6.029,CST-1368DR,4381,4894,11869,01.097,551
2023-02-17T14:54:56,42.805,6.029,CST-1368DR,4381,4894,11868,01.098,551
2023-02-17T14:57:58,42.805,6.029,CST-1368DR,4381,4896,11875,01.095,551
2023-02-17T15:01:00,42.805,6.029,CST-1368DR,4381,4894,11870,01.097,551
2023-02-17T15:04:01,42.805,6.029,CST-1368DR,4380,4892,11867,01.098,551
2023-02-17T15:07:03,42.805,6.029,CST-1368DR,4380,4870,11814,01.116,551
2023-02-17T15:10:04,42.805,6.029,CST-1368DR,4380,4893,11869,01.097,551
2023-02-17T15:13:06,42.805,6.029,CST-1368DR,4380,4894,11871,01.097,551
2023-02-17T15:16:07,42.805,6.029,CST-1368DR,4380,4893,11870,01.097,551
2023-02-17T15:19:09,42.805,6.029,CST-1368DR,4380,4898,11881,01.093,551
2023-02-17T15:22:11,42.805,6.029,CST-1368DR,4380,4891,11863,01.099,551
2023-02-17T15:25:12,42.805,6.029,CST-1368DR,4380,4893,11869,01.097,551
2023-02-17T15:28:14,42.805,6.029,CST-1368DR,4380,4895,11873,01.096,551
2023-02-17T15:31:15,42.805,6.029,CST-1368DR,4380,4890,11861,01.100,551
2023-02-17T15:34:17,42.805,6.029,CST-1368DR,4380,4891,11864,01.099,551
2023-02-17T15:37:19,42.805,6.029,CST-1368DR,4380,4891,11864,01.099,551
2023-02-17T15:40:20,42.805,6.029,CST-1368DR,4380,4892,11867,01.098,551
2023-02-17T15:43:22,42.805,6.029,CST-1368DR,4380,4891,11864,01.099,551
2023-02-17T15:46:23,42.805,6.029,CST-1368DR,4380,4892,11866,01.098,551
2023-02-17T15:49:25,42.805,6.029,CST-1368DR,4380,4891,11864,01.099,551
2023-02-17T15:52:26,42.805,6.029,CST-1368DR,4380,4891,11864,01.099,551
2023-02-17T15:55:28,42.805,6.029,CST-1368DR,4380,4888,11858,01.101,551
2023-02-17T15:58:30,42.805,6.029,CST-1368DR,4380,4888,11858,01.101,551
2023-02-17T16:01:31,42.805,6.029,CST-1368DR,4380,4890,11863,01.099,551
2023-02-17T16:04:33,42.805,6.029,CST-1368DR,4380,4890,11863,01.099,551
2023-02-17T16:07:34,42.805,6.029,CST-1368DR,4380,4890,11863,01.099,551
2023-02-17T16:10:36,42.805,6.029,CST-1368DR,4380,4904,11895,01.089,551
2023-02-17T16:13:37,42.805,6.029,CST-1368DR,4380,4892,11866,01.098,551
2023-02-17T16:16:39,42.805,6.029,CST-1368DR,4380,4896,11876,01.095,551
2023-02-17T16:19:41,42.805,6.029,CST-1368DR,4380,4892,11866,01.098,551
2023-02-17T16:22:42,42.805,6.029,CST-1368DR,4380,4893,11869,01.097,551
2023-02-17T16:25:44,42.805,6.029,CST-1368DR,4380,4892,11867,01.098,551
2023-02-17T16:28:45,42.805,6.029,CST-1368DR,4380,4889,11860,01.100,551
2023-02-17T16:31:47,42.805,6.029,CST-1368DR,4380,4892,11867,01.098,551
2023-02-17T16:34:49,42.805,6.029,CST-1368DR,4380,4892,11866,01.098,551
2023-02-17T16:37:50,42.805,6.029,CST-1368DR,4380,4890,11861,01.100,551